Location: Green River State Wildlife Area
(41.6390°N, 89.5080°W)
Time: 04:24:31
(UTC-05:00)

Daily predictions for brighter satellites

Satellite Brightness Start Highest point End
(mag) Time Altitude Azimuth Time Altitude Azimuth Time Altitude Azimuth
BREEZE M DEB (TANK) 4.4 00:07:09 10° WNW 00:12:39 33° NNW 00:12:39 33° NNW
Cosmos 1725 Rocket 4.5 00:27:06 56° N 00:27:06 56° N 00:31:52 10° N
USA 267 4.0 00:26:29 10° NE 00:32:42 48° NNW 00:35:30 31° W
ADEOS Rocket 3.7 00:32:34 10° NNE 00:37:36 49° NE 00:37:36 49° NE
BREEZE-M R/B 4.5 00:33:11 10° WSW 00:44:08 72° NNE 00:49:10 10° ENE
CZ-2C R/B 4.5 00:44:08 10° NNW 00:48:06 24° WNW 00:48:06 24° WNW
H-2A R/B 4.4 00:51:43 22° NNW 00:51:43 22° NNW 00:53:19 10° NNW
Cosmos 1697 Rocket 4.4 00:47:45 10° N 00:52:22 25° NE 00:52:32 25° NE
COSMOS 2406 4.3 01:04:49 42° N 01:04:49 42° N 01:08:49 10° NNE
USA 234 3.9 01:08:13 45° WNW 01:08:13 45° WNW 01:12:37 10° NW
Cosmos 2082 Rocket 4.0 01:09:34 24° ENE 01:09:34 24° ENE 01:12:11 10° NE
Lacrosse 5 rocket 4.4 01:14:51 11° NE 01:14:51 11° NE 01:14:58 10° NE
SeaSat 1 4.2 01:15:35 27° NNW 01:15:35 27° NNW 01:17:48 10° NNW
Mayak 1.4 01:10:13 10° N 01:11:28 17° NNW 01:11:28 17° NNW
Lacrosse 4 Rocket 3.9 01:20:47 10° NNW 01:22:28 21° N 01:22:28 21° N
Cosmos 1833 Rocket 3.8 01:35:53 39° NE 01:35:53 39° NE 01:39:29 10° NNE
Cosmos 1464 Rocket 4.4 01:51:24 57° NNW 01:51:24 57° NNW 01:56:33 10° N
CZ-2D R/B 4.0 01:59:28 10° NE 02:03:14 21° E 02:03:14 21° E
Nadezhda 4 Rocket 4.2 01:59:26 10° N 02:04:41 66° N 02:04:41 66° N
SL-16 R/B 3.6 02:11:16 32° ESE 02:13:13 40° ENE 02:18:59 10° N
Cosmos 1634 Rocket 4.2 02:22:05 62° E 02:22:05 62° E 02:28:14 10° NNE
Resurs 1-4 Rocket 3.3 02:20:56 10° NNE 02:25:27 34° E 02:25:27 34° E
ARIANE 5 R/B 4.2 02:28:40 10° NE 02:32:55 25° E 02:33:28 24° ESE
Cosmos 1980 Rocket 2.5 02:30:35 10° NNW 02:35:04 59° NNW 02:35:04 59° NNW
Cosmos 1697 Rocket 3.9 02:31:09 10° NNW 02:34:14 31° NW 02:34:14 31° NW
Cosmos 2026 Rocket 4.1 02:31:38 10° N 02:38:00 68° E 02:38:44 62° ESE
IRS-P3 4.2 02:42:14 10° NNE 02:47:15 70° ENE 02:47:15 70° ENE
H-2A R/B 3.6 02:43:57 10° NNE 02:47:06 46° NE 02:47:06 46° NE
ATLAS 3B R/B 3.2 02:48:15 46° SE 02:49:18 50° ESE 02:55:58 10° NE
Lacrosse 5 rocket 3.5 02:50:30 21° NNW 02:50:30 21° NNW 02:53:32 10° NNE
Cosmos 2082 Rocket 3.1 02:51:24 36° NW 02:51:24 36° NW 02:56:25 10° N
Cosmos 841 Rocket 4.4 02:54:06 38° ESE 02:54:21 38° ESE 02:59:09 10° NE
SL-16 R/B 3.2 02:49:22 10° NNW 02:54:48 44° ENE 02:59:31 13° SE
ATLAS CENTAUR R/B 4.4 02:53:21 10° N 02:56:18 17° NE 02:59:20 10° E
Cosmos 2195 Rocket 4.3 02:53:54 10° NNW 03:00:01 72° W 03:00:01 72° W
NPP 3.6 02:55:07 10° NNE 03:00:20 78° NW 03:00:20 78° NW
Cosmos 304 Rocket 4.5 03:03:06 45° NNW 03:03:06 45° NNW 03:06:58 10° N
NOSS 3-2 (A) 4.2 03:02:17 36° SE 03:03:14 39° ESE 03:09:03 10° NE
Cosmos 1726 Rocket 4.2 02:59:07 10° N 03:02:42 52° NE 03:02:42 52° NE
Cosmos 2298 Rocket 4.4 02:59:00 10° NNW 03:04:17 62° ENE 03:05:38 46° ESE
Cosmos 2322 Rocket 2.9 03:01:55 10° NNW 03:07:27 52° ENE 03:12:13 14° SE
IRS-1D 3.6 03:02:19 10° NNE 03:07:32 68° ESE 03:07:55 65° SE
Cosmos 724 4.2 03:11:57 68° W 03:12:22 71° NW 03:18:10 10° NNE
Cosmos 2228 3.4 03:09:32 10° N 03:13:29 58° ENE 03:13:29 58° ENE
Cosmos 1763 Rocket 3.3 03:16:30 82° SSW 03:16:45 89° ESE 03:22:06 10° NNE
BREEZE-M R/B 3.8 03:19:05 41° ENE 03:19:05 41° ENE 03:22:18 10° ENE
Cosmos 1833 Rocket 4.3 03:17:34 21° WNW 03:18:17 22° NW 03:22:35 10° N
Cosmos 1356 Rocket 4.5 03:20:56 36° NNW 03:20:56 36° NNW 03:23:42 10° N
UNKNOWN OBJECT B 4.3 03:17:15 10° NE 03:20:35 28° E 03:20:49 28° ESE
MOZ.5/SAFIR/RUBIN 5/SL-8 3.7 03:22:30 79° SE 03:22:46 85° ENE 03:27:34 10° NNW
Timation 2 Rocket 3.7 03:21:50 63° SSW 03:22:54 89° ESE 03:28:54 10° NNE
UNK 4.4 03:26:18 42° NW 03:26:18 42° NW 03:29:39 10° NNW
ERS-1 4.3 03:20:32 10° NNE 03:25:32 86° ESE 03:26:02 72° S
Iridium 4 Rocket 4.5 03:28:13 28° NW 03:28:13 28° NW 03:31:12 10° NNW
Cosmos 292 Rocket 4.0 03:27:55 56° SE 03:28:31 62° ESE 03:33:16 10° NNE
Cosmos 1428 Rocket 4.4 03:22:36 10° NNW 03:28:43 65° W 03:29:46 56° SW
Cosmos 1606 Rocket 4.5 03:29:01 10° NNW 03:31:57 36° NW 03:31:57 36° NW
Meteor 1-22 Rocket 4.2 03:27:38 10° NNW 03:33:30 69° W 03:34:32 56° SSW
Cosmos 2058 Rocket 2.9 03:30:59 10° N 03:35:27 84° W 03:35:31 83° WSW
Cosmos 1655 Rocket 4.0 03:29:14 10° NNW 03:35:33 67° W 03:37:24 46° SSW
Cosmos 1842 3.3 03:37:01 75° N 03:37:01 75° N 03:40:41 10° N
ADEOS 4.1 03:31:54 10° NNE 03:37:01 54° E 03:39:10 33° SSE
SJ 16-02 2.7 03:33:15 10° N 03:37:25 39° ENE 03:41:33 10° SE
Cosmos 1626 Rocket 4.4 03:37:26 35° SE 03:38:43 46° E 03:42:52 10° NNE
ERBS 3.7 03:39:43 33° E 03:39:43 33° E 03:42:11 10° ENE
ADEOS II 3.3 03:38:05 10° NNE 03:42:58 38° E 03:46:33 17° SSE
Cosmos 44 3.7 03:37:58 10° NW 03:42:37 50° W 03:42:37 50° W
Helios 1A Rocket 2.9 03:39:37 10° NNE 03:43:48 77° ESE 03:44:18 66° SSE
CZ-2D R/B 2.4 03:38:40 10° N 03:43:49 48° WNW 03:44:35 45° W
Cosmos 1892 Rocket 4.0 03:49:00 44° WNW 03:49:00 44° WNW 03:53:01 10° N
Gblst 52 Del rocket 4.5 03:43:51 10° NW 03:49:40 77° NNE 03:56:16 10° ESE
Cosmos 1937 Rocket 4.0 03:45:27 10° NW 03:49:44 39° W 03:49:44 39° W
Cosmos 1805 3.5 03:47:00 10° NNW 03:50:19 54° NW 03:50:19 54° NW
SL-16 R/B 3.1 03:56:20 34° WSW 03:56:50 34° W 04:02:30 10° NNW
Cosmos 1125 Rocket 4.1 03:54:13 10° NNW 03:59:29 59° ENE 04:04:41 10° SSE
USA 238 DEB 4.0 03:59:30 32° WSW 04:02:33 55° NW 04:09:24 10° NNE
USA 238 4.0 03:59:36 32° WSW 04:02:39 55° NW 04:09:30 10° NNE
Cosmos 372 Rocket 4.2 03:59:15 10° NNW 04:04:28 70° ENE 04:09:36 10° SSE
Resurs 1-4 Rocket 3.0 04:00:53 10° N 04:05:26 31° WNW 04:06:32 28° W
CZ-2D R/B 3.4 04:04:47 10° N 04:08:55 71° WNW 04:10:08 44° SW
Cosmos 1733 3.1 04:05:53 10° N 04:09:47 87° W 04:11:29 32° S
ARIANE 5 R/B 3.1 04:07:15 10° N 04:12:09 41° WNW 04:13:49 32° WSW
BREEZE-M DEB (TANK) 2.6 04:12:32 36° ESE 04:12:32 36° ESE 04:14:18 10° ENE
Cosmos 1953 2.2 04:12:47 10° N 04:16:53 80° W 04:19:21 23° S
Cosmos 2360 Rocket 2.2 04:12:04 10° NNW 04:17:44 83° ENE 04:23:21 10° SSE
Cosmos 836 Rocket 4.4 04:20:11 28° SSW 04:22:57 75° WNW 04:28:10 10° NNE
Cosmos 1825 Rocket 4.3 04:25:02 10° SSE 04:29:11 51° E 04:33:23 10° NNE
Cosmos 44 Rocket 4.2 04:25:07 10° NW 04:29:33 30° WSW 04:31:31 23° SSW
Cosmos 1378 3.2 04:31:44 31° SW 04:33:16 56° W 04:37:00 10° N
ATLAS CENTAUR R/B 1.5 04:31:15 10° NW 04:35:42 72° WSW 04:40:23 10° SSE
Cosmos 540 Rocket 3.9 04:33:48 25° WSW 04:36:23 44° WNW 04:41:20 10° N
NOSS 3-3 (A) 4.5 04:29:16 10° NW 04:36:50 71° WSW 04:44:56 10° SSE
NOSS 3-3 (C) 4.5 04:29:23 10° NW 04:36:56 71° WSW 04:45:02 10° SSE
SL-16 R/B 3.1 04:33:58 10° NW 04:38:38 27° WSW 04:41:13 19° SW
NOSS 3-2 (C) 3.6 04:35:41 22° SW 04:39:36 65° NW 04:46:11 10° NNE
ATLAS 3B R/B 3.5 04:35:30 19° WSW 04:40:10 39° NW 04:46:35 10° NNE
Cosmos 2219 Rocket 3.7 04:36:49 10° N 04:42:03 39° ENE 04:47:14 10° SE
Nadezhda 2 Rocket 4.5 04:35:49 10° NNW 04:42:08 72° W 04:48:29 10° S
PSLV R/B 3.9 04:39:09 10° NNE 04:43:20 65° E 04:47:29 10° S
Cosmos 2333 Rocket 3.9 04:40:06 10° N 04:45:19 37° ENE 04:50:32 10° SE
Cosmos 1758 4.4 04:42:59 10° NW 04:46:17 25° W 04:47:25 22° WSW
Okean O Rocket 3.6 04:42:41 10° NE 04:46:27 28° E 04:50:12 10° SSE
Meteor 2-5 Rocket 3.9 04:43:58 10° S 04:49:28 74° E 04:55:06 10° NNE
COSMOS 2428 3.2 04:44:54 10° NNW 04:50:34 65° ENE 04:56:11 10° SE
Cosmos 2322 Rocket 3.3 04:46:51 10° NW 04:51:03 22° W 04:53:51 15° SW
NOSS 3-2 (A) 4.2 04:49:40 17° WSW 04:54:00 41° NW 05:00:15 10° NNE
UNKNOWN OBJECT B 4.3 04:52:07 10° NNW 04:54:52 19° WNW 04:56:16 16° W
CENTAUR R/B 2.6 04:50:39 12° SSW 04:56:08 78° ESE 05:02:57 10° NE
Cosmos 1470 3.7 04:54:10 10° NNW 04:57:40 30° W 05:00:33 13° SSW
Cosmos 1953 Rocket 3.8 04:53:28 10° S 04:57:55 76° E 05:02:21 10° N
Cosmos 1812 Rocket 4.3 04:57:24 10° NNW 05:01:24 33° W 05:05:20 10° SSW
Meteor 1-24 Rocket 4.2 04:56:33 10° S 05:01:44 59° E 05:07:02 10° NNE
Meteor 1-16 Rocket 4.1 04:57:10 10° NNW 05:02:45 74° W 05:08:08 10° S
Cosmos 1417 Rocket 4.5 04:56:42 10° S 05:02:51 81° W 05:09:08 10° N
USA 215 3.5 04:57:03 10° NE 05:03:34 66° SE 05:10:03 10° SW
Cosmos 1707 3.6 05:01:59 15° SW 05:04:39 32° WNW 05:08:12 10° NNW
Aureole 2 Rocket 3.8 05:02:04 10° NW 05:04:51 21° W 05:06:56 13° SW
In-Cosmos 22 4.4 05:00:17 10° S 05:05:41 71° E 05:11:01 10° NNE
SL-08 R/B 4.5 05:02:55 10° N 05:09:12 83° W 05:15:22 10° S
Cosmos 1674 4.4 05:09:08 10° SSE 05:12:37 36° E 05:16:05 10° NNE
Cosmos 1758 Rocket 3.6 05:08:29 10° SSW 05:12:46 61° W 05:17:07 10° N
Meteor 1-28 Rocket 3.9 05:10:44 10° SSE 05:14:21 59° ENE 05:18:01 10° N
ERBS 4.0 05:12:54 10° W 05:15:39 23° NNW 05:18:27 10° NNE
SJ 16-02 2.8 05:12:37 10° NW 05:15:41 19° W 05:18:45 10° SW
Cosmos 1745 Rocket 4.1 05:10:39 10° N 05:16:53 90° WNW 05:23:11 10° S
CZ-4B R/B 3.9 05:15:58 10° NNE 05:21:26 59° ESE 05:26:46 10° S
S3M 3.9 05:15:34 10° SSW 05:21:39 74° W 05:27:47 10° N
ADEOS II 3.2 05:18:05 10° N 05:22:29 28° WNW 05:26:53 10° WSW
PSLV R/B 2.9 05:21:24 10° W 05:24:23 81° S 05:27:22 10° E
Cosmos 2292 Rocket 2.9 05:21:27 10° NNW 05:24:38 50° W 05:27:30 10° S
PAYLOAD B 4.4 05:25:39 10° NNE 05:31:18 87° ESE 05:36:54 10° SSW
Meteor 1-31 Rocket 2.8 05:29:27 10° NNE 05:33:20 84° ESE 05:37:09 10° SSW
BREEZE-M DEB (TANK) 4.4 05:31:22 10° WNW 05:37:16 20° WSW 05:40:08 10° SSW
USA 267 4.5 05:32:10 10° E 05:38:17 44° NNE 05:44:25 10° NW
